Year,Month,Day,Hour,Minute,Value (Times are PST for temperature in C)
2009,06,14,00,00,11.40
2009,06,14,00,01,11.40
2009,06,14,00,02,11.30
2009,06,14,00,03,11.30
2009,06,14,00,04,11.30
2009,06,14,00,05,11.30
2009,06,14,00,06,11.30
2009,06,14,00,07,11.30
2009,06,14,00,08,11.30
2009,06,14,00,09,11.30
2009,06,14,00,10,11.30
2009,06,14,00,11,11.30
2009,06,14,00,12,11.30
2009,06,14,00,13,11.30
2009,06,14,00,14,11.30
2009,06,14,00,15,11.30
2009,06,14,00,16,11.30
2009,06,14,00,17,11.30
2009,06,14,00,18,11.30
2009,06,14,00,19,11.30
2009,06,14,00,20,11.30
2009,06,14,00,21,11.30
2009,06,14,00,22,11.30
2009,06,14,00,23,11.30
2009,06,14,00,24,11.30
2009,06,14,00,25,11.30
2009,06,14,00,26,11.30
2009,06,14,00,27,11.30
2009,06,14,00,28,11.30
2009,06,14,00,29,11.30
2009,06,14,00,30,11.30
2009,06,14,00,31,11.30
2009,06,14,00,32,11.30
2009,06,14,00,33,11.30
2009,06,14,00,34,11.30
2009,06,14,00,35,11.30
2009,06,14,00,36,11.30
2009,06,14,00,37,11.30
2009,06,14,00,38,11.30
2009,06,14,00,39,11.30
2009,06,14,00,40,11.30
2009,06,14,00,41,11.30
2009,06,14,00,42,11.30
2009,06,14,00,43,11.30
2009,06,14,00,44,11.30
2009,06,14,00,45,11.30
2009,06,14,00,46,11.30
2009,06,14,00,47,11.30
2009,06,14,00,48,11.30
2009,06,14,00,49,11.30
2009,06,14,00,50,11.30
2009,06,14,00,51,11.30
2009,06,14,00,52,11.30
2009,06,14,00,53,11.30
2009,06,14,00,54,11.30
2009,06,14,00,55,11.30
2009,06,14,00,56,11.30
2009,06,14,00,57,11.30
2009,06,14,00,58,11.30
2009,06,14,00,59,11.30
2009,06,14,01,00,11.30
2009,06,14,01,01,11.30
2009,06,14,01,02,11.30
2009,06,14,01,03,11.30
2009,06,14,01,04,11.30
2009,06,14,01,05,11.30
2009,06,14,01,06,11.30
2009,06,14,01,07,11.30
2009,06,14,01,08,11.30
2009,06,14,01,09,11.30
2009,06,14,01,10,11.30
2009,06,14,01,11,11.30
2009,06,14,01,12,11.30
2009,06,14,01,13,11.30
2009,06,14,01,14,11.30
2009,06,14,01,15,11.30
2009,06,14,01,16,11.30
2009,06,14,01,17,11.30
2009,06,14,01,18,11.30
2009,06,14,01,19,11.30
2009,06,14,01,20,11.30
2009,06,14,01,21,11.30
2009,06,14,01,22,11.30
2009,06,14,01,23,11.30
2009,06,14,01,24,11.30
2009,06,14,01,25,11.30
2009,06,14,01,26,11.30
2009,06,14,01,27,11.30
2009,06,14,01,28,11.30
2009,06,14,01,29,11.30
2009,06,14,01,30,11.30
2009,06,14,01,31,11.30
2009,06,14,01,32,11.30
2009,06,14,01,33,11.30
2009,06,14,01,34,11.30
2009,06,14,01,35,11.30
2009,06,14,01,36,11.30
2009,06,14,01,37,11.30
2009,06,14,01,38,11.30
2009,06,14,01,39,11.30
2009,06,14,01,40,11.30
2009,06,14,01,41,11.30
2009,06,14,01,42,11.30
2009,06,14,01,43,11.30
2009,06,14,01,44,11.20
2009,06,14,01,45,11.20
2009,06,14,01,46,11.20
2009,06,14,01,47,11.20
2009,06,14,01,48,11.20
2009,06,14,01,49,11.20
2009,06,14,01,50,11.30
2009,06,14,01,51,11.30
2009,06,14,01,52,11.30
2009,06,14,01,53,11.30
2009,06,14,01,54,11.30
2009,06,14,01,55,11.30
2009,06,14,01,56,11.30
2009,06,14,01,57,11.30
2009,06,14,01,58,11.30
2009,06,14,01,59,11.20
2009,06,14,02,00,11.20
2009,06,14,02,01,11.20
2009,06,14,02,02,11.30
2009,06,14,02,03,11.30
2009,06,14,02,04,11.30
2009,06,14,02,05,11.30
2009,06,14,02,06,11.30
2009,06,14,02,07,11.30
2009,06,14,02,08,11.30
2009,06,14,02,09,11.30
2009,06,14,02,10,11.30
2009,06,14,02,11,11.30
2009,06,14,02,12,11.30
2009,06,14,02,13,11.30
2009,06,14,02,14,11.30
2009,06,14,02,15,11.30
2009,06,14,02,16,11.30
2009,06,14,02,17,11.30
2009,06,14,02,18,11.30
2009,06,14,02,19,11.30
2009,06,14,02,20,11.30
2009,06,14,02,21,11.30
2009,06,14,02,22,11.40
2009,06,14,02,23,11.40
2009,06,14,02,24,11.40
2009,06,14,02,25,11.40
2009,06,14,02,26,11.40
2009,06,14,02,27,11.40
2009,06,14,02,28,11.40
2009,06,14,02,29,11.40
2009,06,14,02,30,11.40
2009,06,14,02,31,11.40
2009,06,14,02,32,11.40
2009,06,14,02,33,11.40
2009,06,14,02,34,11.40
2009,06,14,02,35,11.40
2009,06,14,02,36,11.40
2009,06,14,02,37,11.40
2009,06,14,02,38,11.40
2009,06,14,02,39,11.40
2009,06,14,02,40,11.40
2009,06,14,02,41,11.40
2009,06,14,02,42,11.40
2009,06,14,02,43,11.40
2009,06,14,02,44,11.40
2009,06,14,02,45,11.40
2009,06,14,02,46,11.40
2009,06,14,02,47,11.40
2009,06,14,02,48,11.40
2009,06,14,02,49,11.40
2009,06,14,02,50,11.40
2009,06,14,02,51,11.40
2009,06,14,02,52,11.40
2009,06,14,02,53,11.40
2009,06,14,02,54,11.40
2009,06,14,02,55,11.40
2009,06,14,02,56,11.40
2009,06,14,02,57,11.40
2009,06,14,02,58,11.40
2009,06,14,02,59,11.40
2009,06,14,03,00,11.40
2009,06,14,03,01,11.40
2009,06,14,03,02,11.40
2009,06,14,03,03,11.40
2009,06,14,03,04,11.30
2009,06,14,03,05,11.30
2009,06,14,03,06,11.30
2009,06,14,03,07,11.30
2009,06,14,03,08,11.30
2009,06,14,03,09,11.30
2009,06,14,03,10,11.30
2009,06,14,03,11,11.30
2009,06,14,03,12,11.30
2009,06,14,03,13,11.30
2009,06,14,03,14,11.30
2009,06,14,03,15,11.30
2009,06,14,03,16,11.30
2009,06,14,03,17,11.40
2009,06,14,03,18,11.40
2009,06,14,03,19,11.40
2009,06,14,03,20,11.40
2009,06,14,03,21,11.40
2009,06,14,03,22,11.40
2009,06,14,03,23,11.30
2009,06,14,03,24,11.30
2009,06,14,03,25,11.30
2009,06,14,03,26,11.30
2009,06,14,03,27,11.30
2009,06,14,03,28,11.30
2009,06,14,03,29,11.30
2009,06,14,03,30,11.30
2009,06,14,03,31,11.40
2009,06,14,03,32,11.40
2009,06,14,03,33,11.40
2009,06,14,03,34,11.40
2009,06,14,03,35,11.40
2009,06,14,03,36,11.40
2009,06,14,03,37,11.40
2009,06,14,03,38,11.40
2009,06,14,03,39,11.40
2009,06,14,03,40,11.40
2009,06,14,03,41,11.40
2009,06,14,03,42,11.40
2009,06,14,03,43,11.40
2009,06,14,03,44,11.40
2009,06,14,03,45,11.40
2009,06,14,03,46,11.40
2009,06,14,03,47,11.40
2009,06,14,03,48,11.40
2009,06,14,03,49,11.40
2009,06,14,03,50,11.40
2009,06,14,03,51,11.40
2009,06,14,03,52,11.40
2009,06,14,03,53,11.40
2009,06,14,03,54,11.40
2009,06,14,03,55,11.40
2009,06,14,03,56,11.40
2009,06,14,03,57,11.40
2009,06,14,03,58,11.40
2009,06,14,03,59,11.40
2009,06,14,04,00,11.40
2009,06,14,04,01,11.40
2009,06,14,04,02,11.40
2009,06,14,04,03,11.40
2009,06,14,04,04,11.40
2009,06,14,04,05,11.40
2009,06,14,04,06,11.40
2009,06,14,04,07,11.40
2009,06,14,04,08,11.40
2009,06,14,04,09,11.40
2009,06,14,04,10,11.40
2009,06,14,04,11,11.40
2009,06,14,04,12,11.40
2009,06,14,04,13,11.40
2009,06,14,04,14,11.40
2009,06,14,04,15,11.40
2009,06,14,04,16,11.40
2009,06,14,04,17,11.40
2009,06,14,04,18,11.40
2009,06,14,04,19,11.40
2009,06,14,04,20,11.40
2009,06,14,04,21,11.40
2009,06,14,04,22,11.40
2009,06,14,04,23,11.40
2009,06,14,04,24,11.40
2009,06,14,04,25,11.40
2009,06,14,04,26,11.40
2009,06,14,04,27,11.40
2009,06,14,04,28,11.40
2009,06,14,04,29,11.40
2009,06,14,04,30,11.40
2009,06,14,04,31,11.40
2009,06,14,04,32,11.40
2009,06,14,04,33,11.40
2009,06,14,04,34,11.40
2009,06,14,04,35,11.40
2009,06,14,04,36,11.40
2009,06,14,04,37,11.40
2009,06,14,04,38,11.40
2009,06,14,04,39,11.40
2009,06,14,04,40,11.40
2009,06,14,04,41,11.40
2009,06,14,04,42,11.40
2009,06,14,04,43,11.40
2009,06,14,04,44,11.40
2009,06,14,04,45,11.40
2009,06,14,04,46,11.40
2009,06,14,04,47,11.40
2009,06,14,04,48,11.40
2009,06,14,04,49,11.40
2009,06,14,04,50,11.40
2009,06,14,04,51,11.40
2009,06,14,04,52,11.40
2009,06,14,04,53,11.40
2009,06,14,04,54,11.40
2009,06,14,04,55,11.40
2009,06,14,04,56,11.40
2009,06,14,04,57,11.40
2009,06,14,04,58,11.40
2009,06,14,04,59,11.40
2009,06,14,05,00,11.40
2009,06,14,05,01,11.40
2009,06,14,05,02,11.40
2009,06,14,05,03,11.40
2009,06,14,05,04,11.40
2009,06,14,05,05,11.40
2009,06,14,05,06,11.40
2009,06,14,05,07,11.60
2009,06,14,05,08,11.60
2009,06,14,05,09,11.60
2009,06,14,05,10,11.60
2009,06,14,05,11,11.60
2009,06,14,05,12,11.60
2009,06,14,05,13,11.60
2009,06,14,05,14,11.60
2009,06,14,05,15,11.60
2009,06,14,05,16,11.60
2009,06,14,05,17,11.60
2009,06,14,05,18,11.60
2009,06,14,05,19,11.60
2009,06,14,05,20,11.60
2009,06,14,05,21,11.60
2009,06,14,05,22,11.60
2009,06,14,05,23,11.60
2009,06,14,05,24,11.60
2009,06,14,05,25,11.60
2009,06,14,05,26,11.60
2009,06,14,05,27,11.60
2009,06,14,05,28,11.60
2009,06,14,05,29,11.60
2009,06,14,05,30,11.60
2009,06,14,05,31,11.60
2009,06,14,05,32,11.60
2009,06,14,05,33,11.60
2009,06,14,05,34,11.60
2009,06,14,05,35,11.60
2009,06,14,05,36,11.60
2009,06,14,05,37,11.60
2009,06,14,05,38,11.60
2009,06,14,05,39,11.60
2009,06,14,05,40,11.60
2009,06,14,05,41,11.60
2009,06,14,05,42,11.60
2009,06,14,05,43,11.60
2009,06,14,05,44,11.60
2009,06,14,05,45,11.60
2009,06,14,05,46,11.60
2009,06,14,05,47,11.60
2009,06,14,05,48,11.60
2009,06,14,05,49,11.60
2009,06,14,05,50,11.60
2009,06,14,05,51,11.60
2009,06,14,05,52,11.60
2009,06,14,05,53,11.60
2009,06,14,05,54,11.60
2009,06,14,05,55,11.60
2009,06,14,05,56,11.60
2009,06,14,05,57,11.60
2009,06,14,05,58,11.60
2009,06,14,05,59,11.60
2009,06,14,06,00,11.60
2009,06,14,06,01,11.60
2009,06,14,06,02,11.60
2009,06,14,06,03,11.60
2009,06,14,06,04,11.60
2009,06,14,06,05,11.60
2009,06,14,06,06,11.60
2009,06,14,06,07,11.60
2009,06,14,06,08,11.60
2009,06,14,06,09,11.60
2009,06,14,06,10,11.60
2009,06,14,06,11,11.60
2009,06,14,06,12,11.60
2009,06,14,06,13,11.60
2009,06,14,06,14,11.60
2009,06,14,06,15,11.60
2009,06,14,06,16,11.60
2009,06,14,06,17,11.60
2009,06,14,06,18,11.60
2009,06,14,06,19,11.60
2009,06,14,06,20,11.60
2009,06,14,06,21,11.60
2009,06,14,06,22,11.60
2009,06,14,06,23,11.60
2009,06,14,06,24,11.60
2009,06,14,06,25,11.60
2009,06,14,06,26,11.60
2009,06,14,06,27,11.60
2009,06,14,06,28,11.60
2009,06,14,06,29,11.60
2009,06,14,06,30,11.60
2009,06,14,06,31,11.60
2009,06,14,06,32,11.70
2009,06,14,06,33,11.70
2009,06,14,06,34,11.70
2009,06,14,06,35,11.70
2009,06,14,06,36,11.70
2009,06,14,06,37,11.70
2009,06,14,06,38,11.70
2009,06,14,06,39,11.70
2009,06,14,06,40,11.70
2009,06,14,06,41,11.70
2009,06,14,06,42,11.70
2009,06,14,06,43,11.70
2009,06,14,06,44,11.70
2009,06,14,06,45,11.70
2009,06,14,06,46,11.70
2009,06,14,06,47,11.70
2009,06,14,06,48,11.70
2009,06,14,06,49,11.70
2009,06,14,06,50,11.70
2009,06,14,06,51,11.70
2009,06,14,06,52,11.70
2009,06,14,06,53,11.70
2009,06,14,06,54,11.70
2009,06,14,06,55,11.70
2009,06,14,06,56,11.70
2009,06,14,06,57,11.70
2009,06,14,06,58,11.70
2009,06,14,06,59,11.70
2009,06,14,07,00,11.70
2009,06,14,07,01,11.70
2009,06,14,07,02,11.70
2009,06,14,07,03,11.70
2009,06,14,07,04,11.70
2009,06,14,07,05,11.70
2009,06,14,07,06,11.70
2009,06,14,07,07,11.80
2009,06,14,07,08,11.80
2009,06,14,07,09,11.80
2009,06,14,07,10,11.80
2009,06,14,07,11,11.80
2009,06,14,07,12,11.80
2009,06,14,07,13,11.80
2009,06,14,07,14,11.80
2009,06,14,07,15,11.80
2009,06,14,07,16,11.80
2009,06,14,07,17,11.80
2009,06,14,07,18,11.80
2009,06,14,07,19,11.80
2009,06,14,07,20,11.80
2009,06,14,07,21,11.80
2009,06,14,07,22,11.80
2009,06,14,07,23,11.80
2009,06,14,07,24,11.80
2009,06,14,07,25,11.80
2009,06,14,07,26,11.80
2009,06,14,07,27,11.80
2009,06,14,07,28,11.80
2009,06,14,07,29,11.80
2009,06,14,07,30,11.80
2009,06,14,07,31,11.80
2009,06,14,07,32,11.80
2009,06,14,07,33,11.80
2009,06,14,07,34,11.80
2009,06,14,07,35,11.90
2009,06,14,07,36,11.90
2009,06,14,07,37,11.90
2009,06,14,07,38,11.90
2009,06,14,07,39,11.90
2009,06,14,07,40,11.90
2009,06,14,07,41,11.90
2009,06,14,07,42,11.90
2009,06,14,07,43,11.90
2009,06,14,07,44,11.90
2009,06,14,07,45,11.90
2009,06,14,07,46,11.90
2009,06,14,07,47,11.90
2009,06,14,07,48,11.90
2009,06,14,07,49,11.90
2009,06,14,07,50,12.00
2009,06,14,07,51,12.00
2009,06,14,07,52,12.00
2009,06,14,07,53,12.10
2009,06,14,07,54,12.10
2009,06,14,07,55,12.10
2009,06,14,07,56,12.10
2009,06,14,07,57,12.10
2009,06,14,07,58,12.10
2009,06,14,07,59,12.10
2009,06,14,08,00,12.20
2009,06,14,08,01,12.20
2009,06,14,08,02,12.20
2009,06,14,08,03,12.20
2009,06,14,08,04,12.20
2009,06,14,08,05,12.20
2009,06,14,08,06,12.20
2009,06,14,08,07,12.30
2009,06,14,08,08,12.30
2009,06,14,08,09,12.30
2009,06,14,08,10,12.30
2009,06,14,08,11,12.30
2009,06,14,08,12,12.30
2009,06,14,08,13,12.30
2009,06,14,08,14,12.30
2009,06,14,08,15,12.30
2009,06,14,08,16,12.40
2009,06,14,08,17,12.40
2009,06,14,08,18,12.50
2009,06,14,08,19,12.50
2009,06,14,08,20,12.50
2009,06,14,08,21,12.50
2009,06,14,08,22,12.50
2009,06,14,08,23,12.50
2009,06,14,08,24,12.60
2009,06,14,08,25,12.60
2009,06,14,08,26,12.60
2009,06,14,08,27,12.50
2009,06,14,08,28,12.50
2009,06,14,08,29,12.50
2009,06,14,08,30,12.60
2009,06,14,08,31,12.50
2009,06,14,08,32,12.50
2009,06,14,08,33,12.60
2009,06,14,08,34,12.60
2009,06,14,08,35,12.60
2009,06,14,08,36,12.60
2009,06,14,08,37,12.70
2009,06,14,08,38,12.70
2009,06,14,08,39,12.70
2009,06,14,08,40,12.70
2009,06,14,08,41,12.70
2009,06,14,08,42,12.70
2009,06,14,08,43,12.70
2009,06,14,08,44,12.70
2009,06,14,08,45,12.70
2009,06,14,08,46,12.70
2009,06,14,08,47,12.70
2009,06,14,08,48,12.70
2009,06,14,08,49,12.80
2009,06,14,08,50,12.80
2009,06,14,08,51,12.80
2009,06,14,08,52,12.80
2009,06,14,08,53,12.70
2009,06,14,08,54,12.70
2009,06,14,08,55,12.70
2009,06,14,08,56,12.80
2009,06,14,08,57,12.80
2009,06,14,08,58,12.80
2009,06,14,08,59,12.80
2009,06,14,09,00,12.80
2009,06,14,09,01,12.80
2009,06,14,09,02,12.90
2009,06,14,09,03,12.90
2009,06,14,09,04,12.90
2009,06,14,09,05,12.90
2009,06,14,09,06,12.90
2009,06,14,09,07,12.90
2009,06,14,09,08,12.90
2009,06,14,09,09,12.90
2009,06,14,09,10,12.90
2009,06,14,09,11,12.90
2009,06,14,09,12,13.00
2009,06,14,09,13,13.00
2009,06,14,09,14,13.10
2009,06,14,09,15,13.10
2009,06,14,09,16,13.20
2009,06,14,09,17,13.20
2009,06,14,09,18,13.20
2009,06,14,09,19,13.30
2009,06,14,09,20,13.30
2009,06,14,09,21,13.30
2009,06,14,09,22,13.30
2009,06,14,09,23,13.30
2009,06,14,09,24,13.30
2009,06,14,09,25,13.30
2009,06,14,09,26,13.30
2009,06,14,09,27,13.30
2009,06,14,09,28,13.40
2009,06,14,09,29,13.50
2009,06,14,09,30,13.60
2009,06,14,09,31,13.60
2009,06,14,09,32,13.60
2009,06,14,09,33,13.60
2009,06,14,09,34,13.60
2009,06,14,09,35,13.60
2009,06,14,09,36,13.60
2009,06,14,09,37,13.60
2009,06,14,09,38,13.60
2009,06,14,09,39,13.60
2009,06,14,09,40,13.50
2009,06,14,09,41,13.60
2009,06,14,09,42,13.60
2009,06,14,09,43,13.60
2009,06,14,09,44,13.60
2009,06,14,09,45,13.70
2009,06,14,09,46,13.70
2009,06,14,09,47,13.70
2009,06,14,09,48,13.70
2009,06,14,09,49,13.70
2009,06,14,09,50,13.80
2009,06,14,09,51,13.80
2009,06,14,09,52,13.80
2009,06,14,09,53,13.80
2009,06,14,09,54,13.80
2009,06,14,09,55,13.90
2009,06,14,09,56,13.90
2009,06,14,09,57,13.90
2009,06,14,09,58,13.90
2009,06,14,09,59,13.90
2009,06,14,10,00,14.00
2009,06,14,10,01,14.10
2009,06,14,10,02,14.10
2009,06,14,10,03,14.10
2009,06,14,10,04,14.10
2009,06,14,10,05,14.10
2009,06,14,10,06,14.00
2009,06,14,10,07,14.00
2009,06,14,10,08,14.00
2009,06,14,10,09,14.10
2009,06,14,10,10,14.20
2009,06,14,10,11,14.20
2009,06,14,10,12,14.20
2009,06,14,10,13,14.20
2009,06,14,10,14,14.20
2009,06,14,10,15,14.20
2009,06,14,10,16,14.20
2009,06,14,10,17,14.10
2009,06,14,10,18,14.10
2009,06,14,10,19,14.20
2009,06,14,10,20,14.20
2009,06,14,10,21,14.20
2009,06,14,10,22,14.20
2009,06,14,10,23,14.30
2009,06,14,10,24,14.40
2009,06,14,10,25,14.50
2009,06,14,10,26,14.50
2009,06,14,10,27,14.50
2009,06,14,10,28,14.50
2009,06,14,10,29,14.50
2009,06,14,10,30,14.50
2009,06,14,10,31,14.50
2009,06,14,10,32,14.50
2009,06,14,10,33,14.50
2009,06,14,10,34,14.50
2009,06,14,10,35,14.50
2009,06,14,10,36,14.60
2009,06,14,10,37,14.70
2009,06,14,10,38,14.70
2009,06,14,10,39,14.80
2009,06,14,10,40,14.80
2009,06,14,10,41,14.80
2009,06,14,10,42,14.70
2009,06,14,10,43,14.60
2009,06,14,10,44,14.60
2009,06,14,10,45,14.60
2009,06,14,10,46,14.60
2009,06,14,10,47,14.70
2009,06,14,10,48,14.70
2009,06,14,10,49,14.70
2009,06,14,10,50,14.70
2009,06,14,10,51,14.70
2009,06,14,10,52,14.70
2009,06,14,10,53,14.80
2009,06,14,10,54,14.80
2009,06,14,10,55,14.80
2009,06,14,10,56,14.70
2009,06,14,10,57,14.60
2009,06,14,10,58,14.60
2009,06,14,10,59,14.70
2009,06,14,11,00,14.70
2009,06,14,11,01,14.60
2009,06,14,11,02,14.60
2009,06,14,11,03,14.60
2009,06,14,11,04,14.60
2009,06,14,11,05,14.60
2009,06,14,11,06,14.60
2009,06,14,11,07,14.60
2009,06,14,11,08,14.60
2009,06,14,11,09,14.70
2009,06,14,11,10,14.60
2009,06,14,11,11,14.60
2009,06,14,11,12,14.60
2009,06,14,11,13,14.60
2009,06,14,11,14,14.60
2009,06,14,11,15,14.60
2009,06,14,11,16,14.70
2009,06,14,11,17,14.70
2009,06,14,11,18,14.80
2009,06,14,11,19,14.70
2009,06,14,11,20,14.70
2009,06,14,11,21,14.60
2009,06,14,11,22,14.50
2009,06,14,11,23,14.50
2009,06,14,11,24,14.50
2009,06,14,11,25,14.50
2009,06,14,11,26,14.50
2009,06,14,11,27,14.60
2009,06,14,11,28,14.50
2009,06,14,11,29,14.50
2009,06,14,11,30,14.40
2009,06,14,11,31,14.30
2009,06,14,11,32,14.20
2009,06,14,11,33,14.20
2009,06,14,11,34,14.20
2009,06,14,11,35,14.30
2009,06,14,11,36,14.40
2009,06,14,11,37,14.50
2009,06,14,11,38,14.50
2009,06,14,11,39,14.50
2009,06,14,11,40,14.50
2009,06,14,11,41,14.50
2009,06,14,11,42,14.50
2009,06,14,11,43,14.50
2009,06,14,11,44,14.50
2009,06,14,11,45,14.50
2009,06,14,11,46,14.60
2009,06,14,11,47,14.70
2009,06,14,11,48,14.80
2009,06,14,11,49,14.80
2009,06,14,11,50,14.70
2009,06,14,11,51,14.70
2009,06,14,11,52,14.70
2009,06,14,11,53,14.60
2009,06,14,11,54,14.60
2009,06,14,11,55,14.50
2009,06,14,11,56,14.50
2009,06,14,11,57,14.60
2009,06,14,11,58,14.70
2009,06,14,11,59,14.80
2009,06,14,12,00,14.80
2009,06,14,12,01,14.80
2009,06,14,12,02,14.90
2009,06,14,12,03,14.90
2009,06,14,12,04,14.90
2009,06,14,12,05,14.90
2009,06,14,12,06,14.80
2009,06,14,12,07,14.80
2009,06,14,12,08,14.80
2009,06,14,12,09,14.70
2009,06,14,12,10,14.70
2009,06,14,12,11,14.70
2009,06,14,12,12,14.70
2009,06,14,12,13,14.70
2009,06,14,12,14,14.70
2009,06,14,12,15,14.80
2009,06,14,12,16,14.60
2009,06,14,12,17,14.60
2009,06,14,12,18,14.60
2009,06,14,12,19,14.50
2009,06,14,12,20,14.50
2009,06,14,12,21,14.70
2009,06,14,12,22,14.80
2009,06,14,12,23,14.80
2009,06,14,12,24,14.80
2009,06,14,12,25,14.80
2009,06,14,12,26,14.80
2009,06,14,12,27,14.80
2009,06,14,12,28,14.80
2009,06,14,12,29,14.80
2009,06,14,12,30,14.80
2009,06,14,12,31,14.70
2009,06,14,12,32,14.70
2009,06,14,12,33,14.60
2009,06,14,12,34,14.70
2009,06,14,12,35,14.70
2009,06,14,12,36,14.70
2009,06,14,12,37,14.70
2009,06,14,12,38,14.80
2009,06,14,12,39,14.90
2009,06,14,12,40,15.00
2009,06,14,12,41,15.10
2009,06,14,12,42,15.10
2009,06,14,12,43,15.10
2009,06,14,12,44,15.00
2009,06,14,12,45,15.00
2009,06,14,12,46,15.10
2009,06,14,12,47,15.30
2009,06,14,12,48,15.30
2009,06,14,12,49,15.20
2009,06,14,12,50,15.30
2009,06,14,12,51,15.40
2009,06,14,12,52,15.40
2009,06,14,12,53,15.40
2009,06,14,12,54,15.30
2009,06,14,12,55,15.30
2009,06,14,12,56,15.30
2009,06,14,12,57,15.30
2009,06,14,12,58,15.40
2009,06,14,12,59,15.40
2009,06,14,13,00,15.40
2009,06,14,13,01,15.40
2009,06,14,13,02,15.40
2009,06,14,13,03,15.40
2009,06,14,13,04,15.40
2009,06,14,13,05,15.30
2009,06,14,13,06,15.40
2009,06,14,13,07,15.40
2009,06,14,13,08,15.40
2009,06,14,13,09,15.40
2009,06,14,13,10,15.40
2009,06,14,13,11,15.30
2009,06,14,13,12,15.30
2009,06,14,13,13,15.30
2009,06,14,13,14,15.40
2009,06,14,13,15,15.30
2009,06,14,13,16,15.30
2009,06,14,13,17,15.30
2009,06,14,13,18,15.30
2009,06,14,13,19,15.50
2009,06,14,13,20,15.50
2009,06,14,13,21,15.50
2009,06,14,13,22,15.50
2009,06,14,13,23,15.50
2009,06,14,13,24,15.50
2009,06,14,13,25,15.50
2009,06,14,13,26,15.50
2009,06,14,13,27,15.60
2009,06,14,13,28,15.80
2009,06,14,13,29,15.80
2009,06,14,13,30,15.80
2009,06,14,13,31,15.80
2009,06,14,13,32,15.70
2009,06,14,13,33,15.70
2009,06,14,13,34,15.70
2009,06,14,13,35,15.60
2009,06,14,13,36,15.50
2009,06,14,13,37,15.50
2009,06,14,13,38,15.40
2009,06,14,13,39,15.40
2009,06,14,13,40,15.30
2009,06,14,13,41,15.40
2009,06,14,13,42,15.40
2009,06,14,13,43,15.30
2009,06,14,13,44,15.30
2009,06,14,13,45,15.30
2009,06,14,13,46,15.30
2009,06,14,13,47,15.30
2009,06,14,13,48,15.30
2009,06,14,13,49,15.40
2009,06,14,13,50,15.50
2009,06,14,13,51,15.50
2009,06,14,13,52,15.60
2009,06,14,13,53,15.60
2009,06,14,13,54,15.60
2009,06,14,13,55,15.70
2009,06,14,13,56,15.70
2009,06,14,13,57,15.70
2009,06,14,13,58,15.70
2009,06,14,13,59,15.70
2009,06,14,14,00,15.80
2009,06,14,14,01,16.00
2009,06,14,14,02,16.10
2009,06,14,14,03,16.20
2009,06,14,14,04,16.30
2009,06,14,14,05,16.40
2009,06,14,14,06,16.40
2009,06,14,14,07,16.40
2009,06,14,14,08,16.40
2009,06,14,14,09,16.40
2009,06,14,14,10,16.30
2009,06,14,14,11,16.20
2009,06,14,14,12,16.10
2009,06,14,14,13,16.00
2009,06,14,14,14,15.90
2009,06,14,14,15,15.90
2009,06,14,14,16,15.90
2009,06,14,14,17,15.90
2009,06,14,14,18,15.90
2009,06,14,14,19,15.80
2009,06,14,14,20,15.80
2009,06,14,14,21,15.90
2009,06,14,14,22,16.00
2009,06,14,14,23,16.10
2009,06,14,14,24,16.00
2009,06,14,14,25,15.90
2009,06,14,14,26,16.00
2009,06,14,14,27,16.10
2009,06,14,14,28,16.10
2009,06,14,14,29,16.20
2009,06,14,14,30,16.10
2009,06,14,14,31,16.10
2009,06,14,14,32,16.10
2009,06,14,14,33,16.10
2009,06,14,14,34,16.10
2009,06,14,14,35,16.10
2009,06,14,14,36,16.00
2009,06,14,14,37,15.90
2009,06,14,14,38,15.80
2009,06,14,14,39,15.80
2009,06,14,14,40,15.80
2009,06,14,14,41,15.80
2009,06,14,14,42,15.80
2009,06,14,14,43,15.80
2009,06,14,14,44,15.90
2009,06,14,14,45,16.10
2009,06,14,14,46,16.10
2009,06,14,14,47,16.10
2009,06,14,14,48,16.00
2009,06,14,14,49,15.90
2009,06,14,14,50,15.80
2009,06,14,14,51,15.80
2009,06,14,14,52,15.80
2009,06,14,14,53,15.70
2009,06,14,14,54,15.70
2009,06,14,14,55,15.80
2009,06,14,14,56,15.90
2009,06,14,14,57,15.90
2009,06,14,14,58,16.10
2009,06,14,14,59,15.90
2009,06,14,15,00,15.80
2009,06,14,15,01,15.80
2009,06,14,15,02,15.80
2009,06,14,15,03,15.90
2009,06,14,15,04,15.90
2009,06,14,15,05,15.90
2009,06,14,15,06,16.10
2009,06,14,15,07,16.00
2009,06,14,15,08,15.90
2009,06,14,15,09,16.00
2009,06,14,15,10,16.10
2009,06,14,15,11,16.10
2009,06,14,15,12,16.10
2009,06,14,15,13,16.00
2009,06,14,15,14,16.10
2009,06,14,15,15,16.10
2009,06,14,15,16,16.20
2009,06,14,15,17,16.30
2009,06,14,15,18,16.20
2009,06,14,15,19,16.30
2009,06,14,15,20,16.30
2009,06,14,15,40,16.30
2009,06,14,15,41,16.40
2009,06,14,15,42,16.40
2009,06,14,15,43,16.30
2009,06,14,15,44,16.10
2009,06,14,15,45,16.10
2009,06,14,15,46,16.00
2009,06,14,15,47,15.90
2009,06,14,15,48,15.80
2009,06,14,15,49,15.90
2009,06,14,15,50,15.90
2009,06,14,15,51,15.90
2009,06,14,15,52,16.10
2009,06,14,15,53,16.10
2009,06,14,15,54,16.20
2009,06,14,15,55,16.20
2009,06,14,15,56,16.20
2009,06,14,15,57,16.10
2009,06,14,15,58,16.10
2009,06,14,15,59,16.10
2009,06,14,16,00,16.00
2009,06,14,16,01,15.90
2009,06,14,16,02,15.80
2009,06,14,16,03,15.80
2009,06,14,16,04,15.80
2009,06,14,16,05,15.90
2009,06,14,16,06,15.90
2009,06,14,16,07,15.90
2009,06,14,16,08,15.80
2009,06,14,16,09,15.80
2009,06,14,16,10,15.80
2009,06,14,16,11,15.80
2009,06,14,16,12,15.80
2009,06,14,16,13,15.80
2009,06,14,16,14,15.80
2009,06,14,16,15,15.90
2009,06,14,16,16,16.00
2009,06,14,16,17,16.10
2009,06,14,16,18,16.10
2009,06,14,16,19,16.20
2009,06,14,16,20,16.30
2009,06,14,16,21,16.40
2009,06,14,16,22,16.40
2009,06,14,16,23,16.40
2009,06,14,16,24,16.40
2009,06,14,16,25,16.40
2009,06,14,16,26,16.40
2009,06,14,16,27,16.30
2009,06,14,16,28,16.20
2009,06,14,16,29,16.10
2009,06,14,16,30,16.20
2009,06,14,16,31,16.30
2009,06,14,16,32,16.40
2009,06,14,16,33,16.40
2009,06,14,16,34,16.30
2009,06,14,16,35,16.40
2009,06,14,16,36,16.50
2009,06,14,16,37,16.60
2009,06,14,16,38,16.40
2009,06,14,16,39,16.40
2009,06,14,16,40,16.40
2009,06,14,16,41,16.40
2009,06,14,16,42,16.30
2009,06,14,16,43,16.30
2009,06,14,16,44,16.30
2009,06,14,16,45,16.40
2009,06,14,16,46,16.40
2009,06,14,16,47,16.60
2009,06,14,16,48,16.60
2009,06,14,16,49,16.50
2009,06,14,16,50,16.40
2009,06,14,16,51,16.30
2009,06,14,16,52,16.30
2009,06,14,16,53,16.30
2009,06,14,16,54,16.20
2009,06,14,16,55,16.10
2009,06,14,16,56,16.10
2009,06,14,16,57,16.00
2009,06,14,16,58,16.00
2009,06,14,16,59,16.10
2009,06,14,17,00,16.10
2009,06,14,17,01,16.10
2009,06,14,17,02,16.10
2009,06,14,17,03,16.10
2009,06,14,17,04,16.10
2009,06,14,17,05,16.20
2009,06,14,17,06,16.20
2009,06,14,17,07,16.20
2009,06,14,17,08,16.30
2009,06,14,17,09,16.20
2009,06,14,17,10,16.20
2009,06,14,17,11,16.30
2009,06,14,17,12,16.20
2009,06,14,17,13,16.20
2009,06,14,17,14,16.20
2009,06,14,17,15,16.30
2009,06,14,17,16,16.30
2009,06,14,17,17,16.20
2009,06,14,17,18,16.20
2009,06,14,17,19,16.30
2009,06,14,17,20,16.30
2009,06,14,17,21,16.40
2009,06,14,17,22,16.40
2009,06,14,17,23,16.40
2009,06,14,17,24,16.30
2009,06,14,17,25,16.30
2009,06,14,17,26,16.30
2009,06,14,17,27,16.30
2009,06,14,17,28,16.40
2009,06,14,17,29,16.40
2009,06,14,17,30,16.50
2009,06,14,17,31,16.50
2009,06,14,17,32,16.60
2009,06,14,17,33,16.50
2009,06,14,17,34,16.40
2009,06,14,17,35,16.40
2009,06,14,17,36,16.40
2009,06,14,17,37,16.30
2009,06,14,17,38,16.20